EHI
7 7 6 6 5 5 6 7 10 13 15 14 12 12 12 11 11 10 10 10 9 6 5 6 7 8 8 7 6 5 4 5 6 5 4 3 3 4 4 3 2 2 2
8 9 9 9 8 6 5 7 11 14 16 15 15 14 14 13 13 13 12 11 8 5 4 4 4 5 6 6 6 5 4 4 4 4 3 2 2 2 1 1 1 1 1
8 10 12 13 10 7 5 7 12 15 16 17 16 16 16 16 15 15 13 11 8 5 3 1 1 1 2 4 5 4 3 2 2 2 1 1 1 0 0 0 0 0 0
8 10 14 15 13 9 6 8 13 17 18 18 17 17 17 16 15 13 12 9 6 5 3 1 0 0 1 2 4 4 3 3 2 1 1 2 2 2 1 1 1 0 0
7 9 13 15 14 12 10 12 17 21 21 19 18 18 17 15 13 12 10 8 6 4 2 1 0 0 0 1 3 4 4 3 3 3 3 4 5 4 2 1 1 1 1
7 9 12 14 16 15 15 19 24 27 25 22 20 19 16 14 13 13 11 8 6 4 2 0 0 0 0 0 2 4 3 3 4 4 5 5 6 5 3 1 0 0 0
7 9 11 14 16 17 19 24 29 31 30 27 24 20 16 13 13 12 10 8 5 3 2 1 0 0 0 0 1 2 3 4 6 5 4 4 5 4 3 1 0 0 0
9 9 12 14 16 18 20 26 32 34 34 31 27 22 16 12 10 10 7 4 2 1 1 1 0 1 0 0 0 1 3 5 6 5 4 4 4 3 3 2 1 0 0
9 10 12 15 17 19 22 27 33 35 34 30 25 20 15 12 11 8 6 4 2 2 2 1 1 1 0 0 1 1 3 6 8 6 6 5 4 3 3 3 2 3 3
9 10 12 16 18 20 23 29 34 35 31 27 23 17 15 15 14 12 10 8 7 6 5 4 3 2 1 2 2 3 5 8 9 8 6 5 5 5 5 4 5 7 9
12 12 14 17 20 23 25 28 32 33 30 27 24 20 18 17 17 16 14 12 9 8 6 6 6 5 4 4 5 5 7 9 8 6 5 4 5 6 7 6 8 12 14
16 16 17 20 24 27 29 29 29 30 30 29 27 25 23 20 19 18 15 12 9 8 8 9 10 10 8 8 8 8 8 8 6 4 4 4 6 9 11 12 13 15 15
20 22 26 29 31 33 33 31 27 27 28 27 26 27 28 25 21 17 13 11 10 9 11 14 15 15 13 13 12 11 10 9 7 6 5 5 7 11 14 17 19 17 15
24 29 35 37 37 37 35 31 27 25 25 25 25 27 30 29 25 19 14 13 11 12 14 16 17 17 16 16 14 12 10 10 10 10 9 8 8 11 14 18 19 18 15
27 31 35 38 39 37 35 33 30 30 29 28 26 26 28 28 25 20 16 15 14 15 15 16 15 15 14 12 11 11 10 10 12 13 13 11 10 9 10 11 13 14 14
23 25 29 32 34 35 36 35 34 35 35 32 30 28 27 27 24 20 17 17 19 20 19 18 16 14 11 7 6 6 8 10 13 15 15 13 11 9 7 5 5 8 10
17 20 24 27 27 29 32 33 33 34 35 35 34 32 30 28 25 21 20 21 23 23 22 21 20 17 12 6 3 3 5 10 14 16 16 14 13 11 10 7 5 6 7
15 17 20 21 22 24 27 28 27 27 30 32 33 33 32 31 28 25 26 27 27 25 24 23 22 20 15 7 2 2 4 8 11 13 14 14 13 13 13 12 11 11 11
14 16 18 19 21 24 26 25 21 20 22 26 29 32 33 31 29 28 30 31 30 28 26 24 23 22 17 9 3 3 6 9 11 11 12 12 12 12 11 12 12 12 12
13 16 20 23 25 27 27 24 20 17 18 21 26 31 32 30 27 27 29 30 30 29 27 25 24 23 18 11 4 4 9 12 12 12 12 11 11 8 7 8 10 10 10
13 17 24 28 28 27 26 23 20 18 19 22 26 30 31 28 25 24 25 28 28 28 27 27 27 25 20 13 5 3 8 12 13 13 13 12 9 5 3 5 7 7 7
15 21 28 31 27 24 23 22 19 19 21 23 27 30 31 29 25 23 23 25 27 26 25 26 26 25 22 16 8 3 4 8 11 12 12 11 7 2 0 1 3 3 3
19 23 30 31 26 21 21 21 21 21 22 25 28 31 32 31 27 23 22 23 24 23 21 20 21 21 21 18 12 5 3 4 8 10 10 7 4 1 1 1 1 1 2
21 24 29 30 27 23 21 22 23 23 23 24 27 29 31 30 26 23 20 20 19 17 16 16 16 16 17 16 13 9 7 6 7 9 8 6 3 2 2 3 3 4 4
21 23 27 28 28 25 24 24 24 25 24 23 25 26 25 24 22 20 18 17 15 12 11 12 12 12 12 11 11 10 9 8 8 9 10 10 7 6 5 6 6 6 7
21 23 25 27 27 26 26 25 25 26 25 23 24 24 22 21 18 16 15 14 11 8 7 9 10 10 8 7 6 7 7 7 7 9 12 13 11 9 8 8 8 7 7
Wind_Speed
8 7 7 7 7 6 6 6 5 5 4 3 3 2 3 2 1 1 1 0 0 0 1 1 1 1 1 1 2 2 2 2 1 1 1 2 3 1 1 2 2 2 3
9 9 8 8 8 8 7 7 6 6 5 3 2 1 1 2 1 1 1 0 0 0 1 1 1 1 1 1 2 2 2 1 1 1 1 2 3 2 1 1 1 1 2
10 10 10 9 9 8 8 6 6 6 5 4 4 3 3 2 2 2 2 1 0 1 1 1 1 1 2 1 2 2 2 1 1 1 2 2 0 1 2 1 1 1 1
10 10 10 10 9 9 8 7 7 6 5 5 4 4 3 2 2 2 1 1 1 1 1 1 1 2 1 1 2 1 1 2 1 1 1 2 2 2 1 2 2 2 2
10 11 10 10 9 9 8 8 7 6 6 6 5 5 4 3 2 2 2 2 2 1 1 1 1 1 1 1 1 0 2 2 2 1 1 1 2 3 3 1 1 2 1
10 10 10 9 9 9 8 8 8 7 7 6 6 6 4 3 3 3 2 3 2 2 2 2 1 2 1 1 1 1 2 2 2 2 2 2 2 2 2 2 2 1 1
9 10 10 10 10 9 9 8 8 8 8 7 6 6 5 4 4 4 3 3 2 2 2 2 1 1 1 2 2 2 2 2 2 3 2 2 2 2 2 2 2 2 1
9 9 10 10 10 10 10 9 9 8 8 7 7 6 5 4 4 4 3 2 2 1 1 2 2 2 2 2 2 2 2 2 3 3 3 3 3 2 3 3 2 2 2
9 9 9 9 10 10 10 10 9 8 8 7 7 6 5 4 3 3 3 3 2 2 2 2 3 2 2 2 2 2 2 2 3 3 3 3 2 3 3 3 3 3 3
9 9 8 8 8 9 9 9 9 8 7 7 7 6 6 5 4 4 3 3 2 2 2 2 3 3 2 2 3 3 2 2 2 2 3 3 3 2 3 3 3 3 3
8 8 8 8 8 8 8 9 9 8 7 7 6 5 5 5 5 4 4 4 3 3 3 3 3 3 3 3 2 3 2 3 3 2 2 3 2 2 3 2 2 2 2
7 7 7 7 8 8 8 7 7 7 7 7 6 6 5 5 5 4 4 4 4 4 4 4 3 3 3 3 3 3 3 3 3 3 2 3 2 2 3 2 2 2 2
5 6 6 6 7 7 6 6 6 6 7 7 7 6 5 5 5 4 4 4 4 4 4 4 4 4 3 3 3 3 3 3 3 3 3 3 3 3 2 2 2 2 2
6 5 5 5 5 5 6 6 6 6 6 6 6 6 6 5 5 4 4 4 4 4 4 4 4 4 3 3 3 3 3 3 3 3 3 3 3 3 3 2 2 2 2
6 5 5 4 4 5 5 5 5 5 6 6 6 6 6 5 5 5 5 4 4 4 4 4 4 4 3 2 3 3 3 3 3 2 2 1 1 2 2 2 2 2 2
5 5 5 5 4 4 4 4 5 5 5 6 6 5 5 5 5 5 5 5 4 4 4 4 4 3 2 0 1 3 3 3 3 3 2 2 2 1 1 1 2 2 3
4 4 4 4 4 4 4 4 4 4 5 5 6 6 6 6 5 5 5 5 5 5 4 4 4 3 2 0 1 3 4 3 2 3 3 3 1 2 2 2 3 2 1
4 4 4 3 3 4 4 4 4 5 5 5 6 6 5 5 5 5 5 5 5 5 5 4 4 4 3 2 2 3 4 3 3 3 3 3 2 2 2 2 1 1 1
3 3 3 4 3 3 4 4 4 5 5 5 5 5 5 5 5 5 5 5 5 5 5 5 4 4 3 3 3 4 4 3 3 3 2 3 2 1 2 2 2 1 1
2 2 3 3 3 3 3 4 5 5 5 5 5 5 5 6 6 5 5 4 5 5 5 5 5 5 4 4 3 5 4 3 3 3 3 1 2 1 2 3 3 3 2
1 2 3 3 3 3 3 4 4 5 5 4 5 5 5 6 6 5 5 5 5 5 5 5 5 5 4 5 5 4 4 3 4 3 2 2 4 3 3 4 3 3 3
1 2 3 3 3 3 4 4 5 4 4 4 5 5 5 5 5 5 5 5 5 6 6 5 5 4 4 3 4 5 4 5 3 3 2 1 4 4 4 3 2 3 5
2 2 3 3 3 3 4 4 4 4 4 5 5 5 5 5 5 5 6 5 6 5 5 5 5 4 4 4 4 6 5 5 4 2 1 1 4 5 4 4 4 5 4
3 3 3 4 3 3 3 3 3 4 5 5 5 5 5 5 5 4 5 5 5 5 5 5 4 4 4 4 4 4 4 5 5 3 3 5 6 5 3 4 5 4 3
4 4 4 4 4 3 3 3 3 4 5 5 5 5 5 5 5 5 4 5 4 3 3 4 4 4 4 3 2 3 3 3 3 4 4 4 4 4 4 3 3 3 4
4 4 4 4 4 4 4 3 4 5 5 5 5 5 5 4 5 5 5 2 1 2 1 2 4 2 0 3 3 3 3 2 2 4 5 4 4 4 4 4 4 4 3
Wind_Direction
174 174 176 175 172 172 173 176 180 172 181 181 186 176 168 174 165 153 118 144 282 88 244 270 150 208 168 187 200 200 186 196 180 201 185 174 169 186 210 223 240 222 226
177 177 180 179 178 177 181 179 184 183 188 179 188 191 169 183 168 148 120 192 184 215 192 178 212 191 176 196 210 216 222 179 186 239 234 198 167 168 162 183 213 244 234
185 182 184 185 185 183 185 188 188 187 193 188 188 180 175 195 170 175 176 186 219 220 250 182 206 194 209 186 217 216 217 204 186 245 284 272 221 174 157 175 193 219 240
191 187 186 187 189 187 184 186 188 191 190 192 198 200 201 197 186 199 173 192 212 241 198 191 200 221 233 186 224 188 227 229 219 188 243 293 328 282 198 180 167 185 229
192 188 187 185 188 186 182 180 183 188 189 195 194 210 218 200 190 194 178 222 185 209 210 194 204 209 224 221 275 227 252 238 255 258 230 224 224 254 270 258 219 200 211
187 186 183 181 186 186 184 179 178 185 187 193 195 208 218 218 219 215 200 209 194 200 202 206 208 221 230 212 229 248 231 256 276 276 269 255 258 252 253 259 255 260 259
182 183 182 182 185 187 187 183 180 185 188 193 198 202 212 216 218 226 208 228 214 201 191 216 211 231 227 236 239 231 260 256 257 259 265 265 269 279 272 269 270 281 268
176 179 182 184 186 186 186 185 184 188 189 193 197 204 208 218 214 212 238 222 240 231 194 213 216 223 234 239 228 242 241 247 259 270 284 271 262 267 262 265 267 268 260
173 176 180 184 186 185 186 187 183 186 190 193 193 198 205 217 220 205 220 231 235 240 213 224 225 232 236 245 240 246 248 246 253 262 253 259 266 258 267 264 263 269 276
171 172 176 181 183 182 181 184 185 186 187 190 196 193 196 200 207 218 216 234 240 246 241 232 231 233 238 242 245 240 230 242 252 263 286 286 284 287 267 257 256 259 267
175 173 175 177 179 181 181 183 185 184 184 189 191 196 192 191 196 209 214 215 221 223 226 227 229 230 236 238 234 251 253 255 262 263 259 267 282 279 278 262 248 243 243
172 172 172 172 177 181 182 182 185 185 184 183 189 192 195 194 198 205 212 214 212 215 216 219 221 228 230 232 234 246 251 253 261 267 271 272 264 271 276 274 262 249 232
162 161 165 170 175 179 183 182 186 187 185 181 189 190 192 195 201 204 204 207 209 214 216 214 217 221 226 231 237 244 251 250 255 262 267 275 275 270 268 261 253 241 227
163 162 161 167 171 176 181 185 187 187 184 184 190 189 192 196 198 200 201 201 204 206 208 210 213 217 219 225 233 234 244 252 261 267 269 278 277 272 265 257 257 253 242
167 167 170 165 169 174 179 186 189 188 187 187 192 193 189 188 192 192 195 194 199 200 203 208 210 212 212 231 241 235 231 243 254 259 261 272 317 346 314 294 277 259 248
177 173 172 172 178 180 185 185 185 186 185 187 189 190 190 186 190 191 189 187 189 197 202 207 210 211 215 31 308 272 245 244 254 259 253 230 210 201 202 277 304 291 258
187 186 185 184 183 184 182 186 183 185 187 188 187 189 191 192 193 194 188 188 189 193 202 204 206 207 204 170 219 261 254 243 251 258 261 261 240 221 228 199 195 206 250
195 195 202 198 189 184 181 180 179 189 189 184 186 190 192 191 189 194 195 196 196 196 198 204 204 204 192 180 215 247 230 238 245 252 258 261 263 283 276 246 231 235 229
205 205 206 198 187 187 184 186 188 190 193 191 190 193 194 190 191 196 202 203 200 199 199 196 202 205 197 190 220 246 223 217 229 239 247 255 246 324 300 235 220 228 202
195 197 196 190 178 176 182 196 197 195 200 199 198 198 198 196 196 197 205 208 205 205 204 192 199 204 203 180 207 245 230 223 223 213 208 191 245 222 256 229 221 227 231
201 190 186 183 171 170 187 203 209 210 208 201 198 198 199 200 195 193 200 205 204 197 203 198 199 201 202 181 191 226 241 236 233 229 217 167 148 183 227 247 238 246 250
206 187 188 183 172 178 193 210 218 218 209 204 201 202 205 206 190 191 194 201 199 192 197 201 206 199 196 195 184 197 232 273 242 245 241 147 151 183 215 230 237 246 247
235 220 211 207 199 193 205 220 222 213 207 206 206 204 204 206 197 194 193 195 201 206 204 202 204 203 192 175 183 195 215 237 243 255 55 150 187 202 203 207 219 225 228
238 227 219 222 221 215 222 230 223 209 208 210 206 203 204 204 199 204 201 202 203 209 210 213 211 204 196 196 185 189 194 204 216 229 191 188 206 223 219 198 203 216 229
246 238 233 231 232 226 226 226 214 205 209 211 207 209 209 205 201 205 212 217 213 225 230 228 219 218 214 191 196 230 212 219 213 215 215 212 203 206 208 211 214 217 212
253 247 245 243 235 230 227 223 218 208 207 210 210 212 211 201 207 204 200 185 215 159 208 294 295 261 166 148 185 238 264 249 218 229 229 227 228 227 221 217 214 217 221